West Columbia, SC

4:18 PM EST on February 20, 2017 (GMT -0500)
Columbia Metro

Weather History for KCAE - April, 2013

Change the Weather History Date:

Sunday, April 21, 2013

  Actual Average Record
Temperature  
Mean Temperature 56 °F 65 °F  
Max Temperature 72 °F 78 °F 94 °F (1896)
Min Temperature 40 °F 52 °F 29 °F (1953)
Degree Days  
Heating Degree Days 9 3  
Month to date heating degree days 69 100  
Since 1 July heating degree days 2228 2509  
Cooling Degree Days 0 3  
Month to date cooling degree days 74 42  
Year to date cooling degree days 112 64  
Growing Degree Days 6 (Base 50)    
Moisture  
Dew Point 39 °F    
Average Humidity 60    
Maximum Humidity 89    
Minimum Humidity 31    
Precipitation  
Precipitation 0.00 in 0.09 in 1.35 in (1992)
Month to date precipitation 2.53 1.84  
Year to date precipitation 12.90 12.76  
Sea Level Pressure  
Sea Level Pressure 30.32 in    
Wind  
Wind Speed 8 mph (ENE)    
Max Wind Speed 21 mph    
Max Gust Speed 26 mph    
Visibility 10 miles    
Events Rain    
T = Trace of Precipitation, MM = Missing Value Source: NWS Daily Summary

Daily Weather History Graph

Daily Weather History Graph

Search for Another Location

Airport or City:

Trip Planner

Search our weather history database for the weather conditions in past years. The results will help you decide how hot, cold, wet, or windy it might be!

Date:

Astronomy

Apr. 21, 2013 Rise Set
Actual Time 6:46 AM EDT 8:00 PM EDT
Civil Twilight 6:20 AM EDT 8:26 PM EDT
Nautical Twilight 5:49 AM EDT 8:57 PM EDT
Astronomical Twilight 5:16 AM EDT 9:30 PM EDT
Moon 3:55 PM EDT (4/21) 3:55 AM EDT (4/21)
Length of Visible Light 14h 06m
Length of Day
13h 14m
Waxing Gibbous, 79% of the Moon is Illuminated
Apr 21
Waxing Gibbous
Apr 25
Full
May 2
Last Quarter
May 9
New
May 18
First Quarter

Hourly Weather History & Observations

Time (EDT) Temp. Dew Point Humidity Pressure Visibility Wind Dir Wind Speed Gust Speed Precip Events Conditions
12:56 AM 50.0 °F 42.1 °F 74% 30.26 in 10.0 mi Calm Calm - N/A   Clear
1:56 AM 46.0 °F 41.0 °F 83% 30.26 in 10.0 mi Calm Calm - N/A   Clear
2:56 AM 45.0 °F 39.9 °F 82% 30.27 in 10.0 mi Calm Calm - N/A   Clear
3:56 AM 44.1 °F 39.9 °F 85% 30.27 in 9.0 mi Calm Calm - N/A   Clear
4:56 AM 42.1 °F 39.0 °F 89% 30.28 in 10.0 mi Calm Calm - N/A   Clear
5:56 AM 42.1 °F 37.9 °F 85% 30.30 in 9.0 mi Calm Calm - N/A   Clear
6:56 AM 41.0 °F 37.0 °F 86% 30.32 in 8.0 mi Calm Calm - N/A   Partly Cloudy
7:56 AM 46.0 °F 42.1 °F 86% 30.36 in 6.0 mi Calm Calm - N/A   Clear
8:56 AM 55.0 °F 43.0 °F 64% 30.37 in 10.0 mi NNE 5.8 mph - N/A   Clear
9:56 AM 61.0 °F 39.0 °F 44% 30.37 in 10.0 mi NE 8.1 mph - N/A   Clear
10:56 AM 63.0 °F 37.9 °F 40% 30.38 in 10.0 mi ENE 12.7 mph 21.9 mph N/A   Clear
11:56 AM 66.0 °F 37.0 °F 34% 30.37 in 10.0 mi East 17.3 mph 24.2 mph N/A   Clear
12:56 PM 68.0 °F 37.0 °F 32% 30.35 in 10.0 mi East 13.8 mph 23.0 mph 0.00 in Rain Light Rain
1:56 PM 68.0 °F 37.0 °F 32% 30.35 in 10.0 mi ENE 12.7 mph 26.5 mph 0.00 in   Clear
2:56 PM 69.1 °F 37.9 °F 32% 30.34 in 10.0 mi East 13.8 mph 23.0 mph 0.00 in   Partly Cloudy
3:56 PM 70.0 °F 37.9 °F 31% 30.30 in 10.0 mi East 11.5 mph 21.9 mph N/A   Partly Cloudy
4:56 PM 70.0 °F 37.0 °F 30% 30.30 in 10.0 mi East 18.4 mph 23.0 mph N/A   Partly Cloudy
5:56 PM 69.1 °F 37.9 °F 32% 30.29 in 10.0 mi ENE 13.8 mph - N/A   Scattered Clouds
6:56 PM 68.0 °F 37.0 °F 32% 30.31 in 10.0 mi ENE 10.4 mph - N/A   Scattered Clouds
7:56 PM 66.0 °F 37.9 °F 36% 30.32 in 10.0 mi East 9.2 mph - N/A   Scattered Clouds
8:56 PM 64.0 °F 39.0 °F 40% 30.34 in 10.0 mi NE 5.8 mph - N/A   Scattered Clouds
9:56 PM 63.0 °F 39.9 °F 43% 30.35 in 10.0 mi ENE 10.4 mph - N/A   Mostly Cloudy
10:56 PM 61.0 °F 41.0 °F 48% 30.35 in 10.0 mi ENE 10.4 mph - N/A   Clear
11:56 PM 59.0 °F 41.0 °F 51% 30.34 in 10.0 mi ENE 13.8 mph - N/A   Clear